"Period start","avg(HW err(1)/warn(2) (#))","avg(Visibility (m))","avg(Weather code (#))","avg(Precip intensity (mm/h))","min(HW err(1)/warn(2) (#))","max(HW err(1)/warn(2) (#))","std(HW err(1)/warn(2) (#))","med(HW err(1)/warn(2) (#))","min(Visibility (m))","max(Visibility (m))","std(Visibility (m))","med(Visibility (m))","min(Weather code (#))","max(Weather code (#))","std(Weather code (#))","med(Weather code (#))","min(Precip intensity (mm/h))","max(Precip intensity (mm/h))","std(Precip intensity (mm/h))","med(Precip intensity (mm/h))"
2014-08-16 00:00:00,0,44055,0,0.00,0,0,0,0,31831,50000,5341,45464,0,0,0,0,0.00,0.00,0.00,0.00
2014-08-16 00:10:00,0,48759,0,0.00,0,0,0,0,42957,50000,2065,49719,0,0,0,0,0.00,0.00,0.00,0.00
2014-08-16 00:20:00,0,49085,0,0.00,0,0,0,0,44798,50000,1586,49942,0,0,0,0,0.00,0.00,0.00,0.00
2014-08-16 00:30:00,0,49424,0,0.00,0,0,0,0,46264,50000,1158,50000,0,0,0,0,0.00,0.00,0.00,0.00
2014-08-16 00:40:00,0,48190,0,0.00,0,0,0,0,41318,50000,2907,50000,0,0,0,0,0.00,0.00,0.00,0.00
2014-08-16 00:50:00,0,47396,0,0.00,0,0,0,0,40541,50000,3015,48302,0,0,0,0,0.00,0.00,0.00,0.00
2014-08-16 01:00:00,0,48940,0,0.00,0,0,0,0,43958,50000,1828,50000,0,0,0,0,0.00,0.00,0.00,0.00
2014-08-16 01:10:00,0,48419,0,0.00,0,0,0,0,44805,50000,1871,49377,0,0,0,0,0.00,0.00,0.00,0.00
2014-08-16 01:20:00,0,49624,0,0.00,0,0,0,0,46483,50000,1049,50000,0,0,0,0,0.00,0.00,0.00,0.00
2014-08-16 01:30:00,0,49754,0,0.00,0,0,0,0,47541,50000,738,50000,0,0,0,0,0.00,0.00,0.00,0.00
2014-08-16 01:40:00,0,49135,0,0.00,0,0,0,0,44382,50000,1744,49966,0,0,0,0,0.00,0.00,0.00,0.00
2014-08-16 01:50:00,0,48290,0,0.00,0,0,0,0,42313,50000,2725,50000,0,0,0,0,0.00,0.00,0.00,0.00
2014-08-16 02:00:00,0,48360,0,0.00,0,0,0,0,42179,50000,2702,50000,0,0,0,0,0.00,0.00,0.00,0.00
2014-08-16 02:10:00,0,49132,0,0.00,0,0,0,0,45355,50000,1741,50000,0,0,0,0,0.00,0.00,0.00,0.00
2014-08-16 02:20:00,0,50000,0,0.00,0,0,0,0,50000,50000,0,50000,0,0,0,0,0.00,0.00,0.00,0.00
2014-08-16 02:30:00,0,48998,0,0.00,0,0,0,0,42983,50000,2082,50000,0,0,0,0,0.00,0.00,0.00,0.00
2014-08-16 02:40:00,0,48454,0,0.00,0,0,0,0,42841,50000,2220,49496,0,0,0,0,0.00,0.00,0.00,0.00
2014-08-16 02:50:00,0,49933,0,0.00,0,0,0,0,49523,50000,148,50000,0,0,0,0,0.00,0.00,0.00,0.00
2014-08-16 03:00:00,0,49788,0,0.00,0,0,0,0,47875,50000,638,50000,0,0,0,0,0.00,0.00,0.00,0.00
2014-08-16 03:10:00,0,49753,0,0.00,0,0,0,0,48463,50000,477,50000,0,0,0,0,0.00,0.00,0.00,0.00
2014-08-16 03:20:00,0,49120,0,0.00,0,0,0,0,43762,50000,1864,50000,0,0,0,0,0.00,0.00,0.00,0.00
2014-08-16 03:30:00,0,46414,0,0.00,0,0,0,0,38377,50000,3765,47350,0,0,0,0,0.00,0.00,0.00,0.00
2014-08-16 03:40:00,0,46376,0,0.00,0,0,0,0,42242,50000,2720,45532,0,0,0,0,0.00,0.00,0.00,0.00
2014-08-16 03:50:00,0,47125,0,0.00,0,0,0,0,35236,50000,4244,48290,0,0,0,0,0.00,0.00,0.00,0.00
2014-08-16 04:00:00,0,49072,0,0.00,0,0,0,0,44204,50000,1893,50000,0,0,0,0,0.00,0.00,0.00,0.00
2014-08-16 04:10:00,0,48214,0,0.00,0,0,0,0,39610,50000,3324,50000,0,0,0,0,0.00,0.00,0.00,0.00
2014-08-16 04:20:00,0,47916,0,0.00,0,0,0,0,40642,50000,3680,50000,0,0,0,0,0.00,0.00,0.00,0.00
2014-08-16 04:30:00,0,49481,0,0.00,0,0,0,0,47651,50000,907,50000,0,0,0,0,0.00,0.00,0.00,0.00
2014-08-16 04:40:00,0,49669,0,0.00,0,0,0,0,46693,50000,992,50000,0,0,0,0,0.00,0.00,0.00,0.00
2014-08-16 04:50:00,0,49605,0,0.00,0,0,0,0,48634,50000,604,50000,0,0,0,0,0.00,0.00,0.00,0.00
2014-08-16 05:00:00,0,49851,0,0.00,0,0,0,0,49056,50000,312,50000,0,0,0,0,0.00,0.00,0.00,0.00
2014-08-16 05:10:00,0,49208,0,0.00,0,0,0,0,44087,50000,1807,50000,0,0,0,0,0.00,0.00,0.00,0.00
2014-08-16 05:20:00,0,49418,0,0.00,0,0,0,0,44668,50000,1589,50000,0,0,0,0,0.00,0.00,0.00,0.00
2014-08-16 05:30:00,0,49352,0,0.00,0,0,0,0,45125,50000,1488,50000,0,0,0,0,0.00,0.00,0.00,0.00
2014-08-16 05:40:00,0,48998,0,0.00,0,0,0,0,44741,50000,1576,49752,0,0,0,0,0.00,0.00,0.00,0.00
2014-08-16 05:50:00,0,49137,0,0.00,0,0,0,0,45216,50000,1614,50000,0,0,0,0,0.00,0.00,0.00,0.00
2014-08-16 06:00:00,0,49389,0,0.00,0,0,0,0,45837,50000,1319,50000,0,0,0,0,0.00,0.00,0.00,0.00
2014-08-16 06:10:00,0,49574,0,0.00,0,0,0,0,47320,50000,821,50000,0,0,0,0,0.00,0.00,0.00,0.00
2014-08-16 06:20:00,0,48150,0,0.00,0,0,0,0,41845,50000,3016,50000,0,0,0,0,0.00,0.00,0.00,0.00
2014-08-16 06:30:00,0,49599,0,0.00,0,0,0,0,47634,50000,740,50000,0,0,0,0,0.00,0.00,0.00,0.00
2014-08-16 06:40:00,0,48451,0,0.00,0,0,0,0,42024,50000,2625,50000,0,0,0,0,0.00,0.00,0.00,0.00
2014-08-16 06:50:00,0,49782,0,0.00,0,0,0,0,48286,50000,517,50000,0,0,0,0,0.00,0.00,0.00,0.00
2014-08-16 07:00:00,0,49152,0,0.00,0,0,0,0,46756,50000,1153,49930,0,0,0,0,0.00,0.00,0.00,0.00
2014-08-16 07:10:00,0,49941,0,0.00,0,0,0,0,49408,50000,178,50000,0,0,0,0,0.00,0.00,0.00,0.00
2014-08-16 07:20:00,0,50000,0,0.00,0,0,0,0,50000,50000,0,50000,0,0,0,0,0.00,0.00,0.00,0.00
2014-08-16 07:30:00,0,49572,0,0.00,0,0,0,0,48246,50000,688,50000,0,0,0,0,0.00,0.00,0.00,0.00
2014-08-16 07:40:00,0,49890,0,0.00,0,0,0,0,49204,50000,237,50000,0,0,0,0,0.00,0.00,0.00,0.00
2014-08-16 07:50:00,0,49999,0,0.00,0,0,0,0,49989,50000,3,50000,0,0,0,0,0.00,0.00,0.00,0.00
2014-08-16 08:00:00,0,48563,0,0.00,0,0,0,0,41334,50000,2759,50000,0,0,0,0,0.00,0.00,0.00,0.00
2014-08-16 08:10:00,0,49882,0,0.00,0,0,0,0,48817,50000,355,50000,0,0,0,0,0.00,0.00,0.00,0.00
2014-08-16 08:20:00,0,49488,0,0.00,0,0,0,0,45907,50000,1233,50000,0,0,0,0,0.00,0.00,0.00,0.00
2014-08-16 08:30:00,0,49711,0,0.00,0,0,0,0,48658,50000,496,50000,0,0,0,0,0.00,0.00,0.00,0.00
2014-08-16 08:40:00,0,49277,0,0.00,0,0,0,0,45041,50000,1494,50000,0,0,0,0,0.00,0.00,0.00,0.00
2014-08-16 08:50:00,0,50000,0,0.00,0,0,0,0,50000,50000,0,50000,0,0,0,0,0.00,0.00,0.00,0.00
2014-08-16 09:00:00,0,49593,0,0.00,0,0,0,0,47322,50000,842,50000,0,0,0,0,0.00,0.00,0.00,0.00
2014-08-16 09:10:00,0,50000,0,0.00,0,0,0,0,50000,50000,0,50000,0,0,0,0,0.00,0.00,0.00,0.00
2014-08-16 09:20:00,0,49981,0,0.00,0,0,0,0,49811,50000,57,50000,0,0,0,0,0.00,0.00,0.00,0.00
2014-08-16 09:30:00,0,49842,0,0.00,0,0,0,0,48424,50000,473,50000,0,0,0,0,0.00,0.00,0.00,0.00
2014-08-16 09:40:00,0,49961,0,0.00,0,0,0,0,49607,50000,118,50000,0,0,0,0,0.00,0.00,0.00,0.00
2014-08-16 09:50:00,0,49838,0,0.00,0,0,0,0,48516,50000,443,50000,0,0,0,0,0.00,0.00,0.00,0.00
2014-08-16 10:00:00,0,49934,0,0.00,0,0,0,0,49338,50000,199,50000,0,0,0,0,0.00,0.00,0.00,0.00
2014-08-16 10:10:00,0,50000,0,0.00,0,0,0,0,50000,50000,0,50000,0,0,0,0,0.00,0.00,0.00,0.00
2014-08-16 10:20:00,0,50000,0,0.00,0,0,0,0,50000,50000,0,50000,0,0,0,0,0.00,0.00,0.00,0.00
2014-08-16 10:30:00,0,49986,0,0.00,0,0,0,0,49860,50000,42,50000,0,0,0,0,0.00,0.00,0.00,0.00
2014-08-16 10:40:00,0,50000,0,0.00,0,0,0,0,50000,50000,0,50000,0,0,0,0,0.00,0.00,0.00,0.00
2014-08-16 10:50:00,0,50000,0,0.00,0,0,0,0,50000,50000,0,50000,0,0,0,0,0.00,0.00,0.00,0.00
2014-08-16 11:00:00,0,50000,0,0.00,0,0,0,0,50000,50000,0,50000,0,0,0,0,0.00,0.00,0.00,0.00
2014-08-16 11:10:00,0,50000,0,0.00,0,0,0,0,50000,50000,0,50000,0,0,0,0,0.00,0.00,0.00,0.00
2014-08-16 11:20:00,0,50000,0,0.00,0,0,0,0,50000,50000,0,50000,0,0,0,0,0.00,0.00,0.00,0.00
2014-08-16 11:30:00,0,50000,0,0.00,0,0,0,0,50000,50000,0,50000,0,0,0,0,0.00,0.00,0.00,0.00
2014-08-16 11:40:00,0,50000,0,0.00,0,0,0,0,50000,50000,0,50000,0,0,0,0,0.00,0.00,0.00,0.00
2014-08-16 11:50:00,0,50000,0,0.00,0,0,0,0,50000,50000,0,50000,0,0,0,0,0.00,0.00,0.00,0.00
2014-08-16 12:00:00,0,49460,0,0.00,0,0,0,0,47227,50000,1061,50000,0,0,0,0,0.00,0.00,0.00,0.00
2014-08-16 12:10:00,0,49254,0,0.00,0,0,0,0,46471,50000,1270,50000,0,0,0,0,0.00,0.00,0.00,0.00
2014-08-16 12:20:00,0,50000,0,0.00,0,0,0,0,50000,50000,0,50000,0,0,0,0,0.00,0.00,0.00,0.00
2014-08-16 12:30:00,0,50000,0,0.00,0,0,0,0,50000,50000,0,50000,0,0,0,0,0.00,0.00,0.00,0.00
2014-08-16 12:40:00,0,49995,0,0.00,0,0,0,0,49948,50000,16,50000,0,0,0,0,0.00,0.00,0.00,0.00
2014-08-16 12:50:00,0,49988,0,0.00,0,0,0,0,49877,50000,37,50000,0,0,0,0,0.00,0.00,0.00,0.00
2014-08-16 13:00:00,0,49912,0,0.00,0,0,0,0,49409,50000,189,50000,0,0,0,0,0.00,0.00,0.00,0.00
2014-08-16 13:10:00,0,50000,0,0.00,0,0,0,0,50000,50000,0,50000,0,0,0,0,0.00,0.00,0.00,0.00
2014-08-16 13:20:00,0,49579,0,0.00,0,0,0,0,47549,50000,740,49985,0,0,0,0,0.00,0.00,0.00,0.00
2014-08-16 13:30:00,0,49195,0,0.00,0,0,0,0,44265,50000,1701,50000,0,0,0,0,0.00,0.00,0.00,0.00
2014-08-16 13:40:00,0,49030,0,0.00,0,0,0,0,47045,50000,1229,50000,0,0,0,0,0.00,0.00,0.00,0.00
2014-08-16 13:50:00,0,48289,0,0.00,0,0,0,0,43748,50000,1934,48908,0,0,0,0,0.00,0.00,0.00,0.00
2014-08-16 14:00:00,0,44740,0,0.00,0,0,0,0,39563,49112,2829,45174,0,0,0,0,0.00,0.00,0.00,0.00
2014-08-16 14:10:00,0,39934,0,0.00,0,0,0,0,32933,46371,3880,40599,0,0,0,0,0.00,0.00,0.00,0.00
2014-08-16 14:20:00,0,43536,0,0.00,0,0,0,0,39289,49020,3334,42404,0,0,0,0,0.00,0.00,0.00,0.00
2014-08-16 14:30:00,0,44492,0,0.00,0,0,0,0,39856,50000,3229,43914,0,0,0,0,0.00,0.00,0.00,0.00
2014-08-16 14:40:00,0,36627,0,0.00,0,0,0,0,31253,42678,3320,36648,0,0,0,0,0.00,0.00,0.00,0.00
2014-08-16 14:50:00,0,36882,0,0.00,0,0,0,0,34554,41813,2089,36494,0,0,0,0,0.00,0.00,0.00,0.00
2014-08-16 15:00:00,0,39641,0,0.00,0,0,0,0,29619,48723,5448,38726,0,0,0,0,0.00,0.00,0.00,0.00
2014-08-16 15:10:00,0,43430,0,0.00,0,0,0,0,38811,46098,1935,44070,0,0,0,0,0.00,0.00,0.00,0.00
2014-08-16 15:20:00,0,41646,0,0.00,0,0,0,0,37321,46445,2557,41740,0,0,0,0,0.00,0.00,0.00,0.00
2014-08-16 15:30:00,0,44038,0,0.00,0,0,0,0,38500,48696,3635,43574,0,0,0,0,0.00,0.00,0.00,0.00
2014-08-16 15:40:00,0,35999,0,0.00,0,0,0,0,31135,38418,1866,36416,0,0,0,0,0.00,0.00,0.00,0.00
2014-08-16 15:50:00,0,43773,0,0.00,0,0,0,0,38361,47318,3593,44934,0,0,0,0,0.00,0.00,0.00,0.00
2014-08-16 16:00:00,0,41990,0,0.00,0,0,0,0,34377,47038,3766,41702,0,0,0,0,0.00,0.00,0.00,0.00
2014-08-16 16:10:00,0,42580,0,0.00,0,0,0,0,36881,48455,4014,42853,0,0,0,0,0.00,0.00,0.00,0.00
2014-08-16 16:20:00,0,44539,0,0.00,0,0,0,0,34903,50000,4706,45204,0,0,0,0,0.00,0.00,0.00,0.00
2014-08-16 16:30:00,0,45954,0,0.00,0,0,0,0,41767,50000,2674,45950,0,0,0,0,0.00,0.00,0.00,0.00
2014-08-16 16:40:00,0,43114,0,0.00,0,0,0,0,38116,49779,3272,42774,0,0,0,0,0.00,0.00,0.00,0.00
2014-08-16 16:50:00,0,44406,0,0.00,0,0,0,0,36632,49348,3672,45484,0,0,0,0,0.00,0.00,0.00,0.00
2014-08-16 17:00:00,0,42554,0,0.00,0,0,0,0,35983,47891,3975,43084,0,0,0,0,0.00,0.00,0.00,0.00
2014-08-16 17:10:00,0,44425,0,0.00,0,0,0,0,34265,48980,4268,45880,0,0,0,0,0.00,0.00,0.00,0.00
2014-08-16 17:20:00,0,38749,0,0.00,0,0,0,0,19777,47087,8435,43059,0,0,0,0,0.00,0.00,0.00,0.00
2014-08-16 17:30:00,0,26525,28,0.14,0,0,0,0,17158,33373,5137,26040,0,61,28,26,0.00,0.65,0.22,0.03
2014-08-16 17:40:00,0,22059,52,0.57,0,0,0,0,18086,26977,2705,22089,51,52,0,52,0.20,1.10,0.31,0.55
2014-08-16 17:50:00,0,25735,52,0.78,0,0,0,0,21665,31621,2977,25580,51,61,3,52,0.30,1.75,0.45,0.73
2014-08-16 18:00:00,0,26306,59,1.07,0,0,0,0,19110,32724,4460,27471,52,61,4,61,0.35,2.25,0.57,0.85
2014-08-16 18:10:00,0,24767,52,1.06,0,0,0,0,21598,29908,2375,24161,52,52,0,52,0.65,1.65,0.34,0.97
2014-08-16 18:20:00,0,22292,56,1.07,0,0,0,0,18774,26320,2500,21339,52,61,4,52,0.65,2.50,0.50,0.97
2014-08-16 18:30:00,0,24753,52,0.57,0,0,0,0,20114,30913,3503,24568,52,52,0,52,0.30,1.10,0.22,0.53
2014-08-16 18:40:00,0,25973,53,1.95,0,0,0,0,19772,32710,3530,25182,52,61,3,52,0.50,8.35,2.25,1.07
2014-08-16 18:50:00,0,19372,61,3.77,0,0,0,0,16775,22984,1818,19044,61,61,0,61,1.55,6.90,1.87,3.25
2014-08-16 19:00:00,0,20874,54,1.33,0,0,0,0,16275,27971,3726,19209,52,61,4,52,0.95,1.90,0.32,1.20
2014-08-16 19:10:00,0,22382,56,1.39,0,0,0,0,14171,30294,4466,22170,52,61,4,52,0.35,2.80,0.83,1.12
2014-08-16 19:20:00,0,23669,61,1.99,0,0,0,0,13754,30074,4375,23000,61,61,0,61,0.35,3.95,1.18,1.75
2014-08-16 19:30:00,0,16572,61,3.21,0,0,0,0,11479,22656,3076,17007,61,61,0,61,1.95,6.60,1.31,3.20
2014-08-16 19:40:00,0,26091,57,0.94,0,0,0,0,22156,31413,2555,26187,51,61,5,61,0.50,2.50,0.56,0.78
2014-08-16 19:50:00,0,11462,59,4.99,0,0,0,0,8201,19123,3337,10134,52,62,4,61,2.60,10.25,2.33,4.10
2014-08-16 20:00:00,0,7736,61,9.31,0,0,0,0,5330,8536,1027,8214,61,62,0,61,4.85,19.35,4.07,7.80
2014-08-16 20:10:00,0,7336,61,8.90,0,0,0,0,4215,9101,1468,7662,61,62,0,61,1.35,37.25,10.32,5.03
2014-08-16 20:20:00,0,9153,61,5.00,0,0,0,0,7264,11556,1446,8974,61,62,0,61,1.80,10.35,2.61,4.35
2014-08-16 20:30:00,0,8380,60,1.76,0,0,0,0,5490,11916,2133,8852,52,61,3,61,0.20,3.90,1.29,1.73
2014-08-16 20:40:00,0,20245,53,0.99,0,0,0,0,7738,32612,8305,21570,51,61,3,52,0.05,5.25,1.54,0.28
2014-08-16 20:50:00,0,35911,53,0.08,0,0,0,0,20329,44745,7761,38302,41,61,10,61,0.00,0.20,0.06,0.05
2014-08-16 21:00:00,0,42889,0,0.00,0,0,0,0,26690,50000,8587,48344,0,0,0,0,0.00,0.00,0.00,0.00
2014-08-16 21:10:00,0,42649,6,0.11,0,0,0,0,8839,50000,14833,50000,0,61,18,0,0.00,1.10,0.33,0.00
2014-08-16 21:20:00,0,35702,32,0.34,0,0,0,0,13949,50000,15087,43699,0,61,26,51,0.00,2.40,0.71,0.00
2014-08-16 21:30:00,0,46357,0,0.00,0,0,0,0,36098,50000,5238,50000,0,0,0,0,0.00,0.00,0.00,0.00
2014-08-16 21:40:00,0,49747,0,0.00,0,0,0,0,47466,50000,760,50000,0,0,0,0,0.00,0.00,0.00,0.00
2014-08-16 21:50:00,0,49853,0,0.00,0,0,0,0,48530,50000,441,50000,0,0,0,0,0.00,0.00,0.00,0.00
2014-08-16 22:00:00,0,49896,0,0.00,0,0,0,0,48960,50000,312,50000,0,0,0,0,0.00,0.00,0.00,0.00
2014-08-16 22:10:00,0,49936,0,0.00,0,0,0,0,49661,50000,111,50000,0,0,0,0,0.00,0.00,0.00,0.00
2014-08-16 22:20:00,0,48684,0,0.00,0,0,0,0,42069,50000,2669,50000,0,0,0,0,0.00,0.00,0.00,0.00
2014-08-16 22:30:00,0,44793,0,0.00,0,0,0,0,40597,50000,3101,44217,0,0,0,0,0.00,0.00,0.00,0.00
2014-08-16 22:40:00,0,35162,0,0.00,0,0,0,0,29844,41962,4275,34863,0,0,0,0,0.00,0.00,0.00,0.00
2014-08-16 22:50:00,0,39013,0,0.00,0,0,0,0,29070,48149,5909,38705,0,0,0,0,0.00,0.00,0.00,0.00
2014-08-16 23:00:00,0,34647,0,0.00,0,0,0,0,23327,48344,9006,33833,0,0,0,0,0.00,0.00,0.00,0.00
2014-08-16 23:10:00,0,19134,16,0.06,0,0,0,0,15480,22644,2428,19484,0,41,20,0,0.00,0.20,0.07,0.00
2014-08-16 23:20:00,0,17353,56,0.07,0,0,0,0,14006,21071,2161,16668,51,61,5,56,0.00,0.20,0.05,0.05
2014-08-16 23:30:00,0,16600,46,0.04,0,0,0,0,15189,19080,1060,16633,0,51,15,51,0.00,0.10,0.04,0.03
2014-08-16 23:40:00,0,12645,18,1.66,0,0,0,0,7080,17948,3907,13170,0,61,28,0,0.00,7.85,2.76,0.00
2014-08-16 23:50:00,0,10197,58,5.54,0,0,0,0,6037,14578,2688,9428,52,62,4,61,0.75,17.40,5.04,3.35
